Location: Unspecified
(0.0000°N, 0.0000°E)
Time: 14:41:22
(UTC+01:00)

ADEOS II - Visible Passes

Search period start: 30 October 2014 00:00
Search period end: 09 November 2014 00:00
Orbit: 802 x 802 km, 98.3° (Epoch: 29 October)

Date Brightness Start Highest point End Pass type
(mag) Time Alt. Az. Time Alt. Az. Time Alt. Az.
30 Oct 4.1 19:12:12 10° SSW 19:16:53 33° WSW 19:21:34 10° NW visible
31 Oct 3.6 06:09:12 10° NNE 06:14:07 42° ESE 06:19:02 10° S visible
01 Nov 5.0 05:44:22 10° NE 05:48:10 21° ESE 05:51:59 10° SSE visible
02 Nov 5.2 19:35:00 10° SW 19:38:31 18° WSW 19:42:02 10° WNW visible
03 Nov 3.9 19:07:46 10° SSW 19:12:35 37° WSW 19:17:23 10° NW visible
04 Nov 3.9 06:04:59 10° NE 06:09:48 37° ESE 06:14:37 10° S visible
05 Nov 5.1 05:40:19 10° ENE 05:43:52 19° ESE 05:47:25 10° SE visible
06 Nov 5.0 19:30:25 10° SSW 19:34:12 20° WSW 19:37:59 10° NW visible
07 Nov 3.7 19:03:21 10° S 19:08:16 41° WSW 19:13:10 10° NNW visible
08 Nov 4.1 06:00:47 10° NE 06:05:29 34° ESE 06:10:11 10° SSE visible
